Location: Mason Neck State Park
(38.6428°N, 77.1981°W)
Time: 04:17:36
(UTC-04:00)

Cosmos 2278 Rocket - Visible Passes

Search period start: 28 July 2014 00:00
Search period end: 07 August 2014 00:00
Orbit: 840 x 847 km, 71.0° (Epoch: 26 July)

Date Brightness Start Highest point End Pass type
(mag) Time Alt. Az. Time Alt. Az. Time Alt. Az.
28 Jul 4.6 02:29:41 10° ESE 02:30:59 11° E 02:32:18 10° E visible
28 Jul 2.1 04:11:29 33° SSW 04:14:11 87° WNW 04:19:54 10° NNE visible
29 Jul 4.6 02:16:00 10° ESE 02:16:34 10° E 02:17:09 10° E visible
29 Jul 2.1 03:57:40 41° SSW 03:59:45 89° ESE 04:05:27 10° NNE visible
30 Jul 2.1 03:43:48 52° SSW 03:45:17 86° ESE 03:51:00 10° NNE visible
30 Jul 4.2 05:27:05 10° W 05:30:08 15° NW 05:33:12 10° NNW visible
31 Jul 2.1 03:29:54 63° S 03:30:50 83° ESE 03:36:32 10° NNE visible
31 Jul 4.1 05:12:27 10° W 05:15:39 15° NW 05:18:52 10° NNW visible
01 Aug 2.1 03:15:58 74° SSE 03:16:23 79° ESE 03:22:05 10° NNE visible
01 Aug 4.1 04:57:50 10° W 05:01:09 16° NW 05:04:31 10° NNW visible
02 Aug 2.2 03:02:00 76° ESE 03:02:00 76° ESE 03:07:37 10° NNE visible
02 Aug 4.1 04:43:51 12° W 04:46:40 16° NW 04:50:10 10° NNW visible
03 Aug 2.3 02:48:00 68° ENE 02:48:00 68° ENE 02:53:10 10° NNE visible
03 Aug 4.0 04:29:51 14° W 04:32:11 17° NW 04:35:48 10° NNW visible
04 Aug 2.6 02:33:58 59° ENE 02:33:58 59° ENE 02:38:42 10° NNE visible
04 Aug 4.0 04:15:49 15° WNW 04:17:41 18° NW 04:21:26 10° N visible
05 Aug 2.9 02:19:54 51° NE 02:19:54 51° NE 02:24:14 10° NNE visible
05 Aug 3.9 04:01:45 17° WNW 04:03:12 18° NW 04:07:04 10° N visible
06 Aug 3.1 02:05:49 44° NE 02:05:49 44° NE 02:09:46 10° NNE visible
06 Aug 3.9 03:47:40 18° WNW 03:48:43 19° NW 03:52:41 10° N visible
